CAPE
1231 1244 1294 1456 1369 1262 1163 1155 1198 1156 1017 936 775 573 564 764 823 817 694 634 752 566
1309 1323 1375 1467 1482 1419 1346 1223 1208 1110 1062 1021 939 866 840 786 821 800 817 690 867 822
1420 1455 1502 1556 1457 1391 1350 1263 1212 1165 1097 1173 1187 1137 1041 879 909 979 808 441 741 849
1547 1544 1585 1557 1533 1490 1386 1349 1314 1323 1324 1291 1154 1172 1135 1012 1004 859 900 607 392 480
1706 1672 1631 1558 1578 1536 1431 1394 1371 1309 1311 1241 1077 1097 1068 945 841 957 776 555 322 288
1655 1674 1642 1629 1645 1587 1495 1455 1449 1274 1197 1181 1075 1047 1051 1044 1032 1049 1056 893 586 455
1809 1744 1736 1742 1759 1662 1745 1633 1573 1289 1192 1113 1189 1168 1043 1020 946 1241 1159 1060 865 720
1944 1956 1914 1890 1817 1863 1992 1697 827 370 256 246 547 1047 1233 1116 1035 1126 991 847 909 748
2114 2026 1967 1954 1824 1796 1517 530 0 0 9 56 269 506 559 704 718 1070 1142 929 1109 795
2241 2183 2198 2301 2147 2062 1379 670 251 18 41 4 2 386 360 208 165 685 948 1057 1096 1028
2374 2316 2348 2477 2450 2568 1629 856 323 165 8 0 69 651 301 247 267 372 837 892 1139 839
2649 2343 2320 2408 2497 2674 1571 890 617 96 0 18 693 915 385 121 262 426 723 549 770 636
3110 2730 2394 2386 2540 2551 1536 1112 38 0 21 315 523 732 377 221 369 379 792 742 701 245
2198 2968 2730 2412 2354 2296 2107 1346 316 0 30 249 716 757 279 144 486 597 614 537 435 219
CIN
-158 -133 -99 -61 -60 -44 -33 -16 -15 -20 -22 -23 -23 -20 -16 -8 -3 -1 -6 -9 -4 -5
-188 -167 -135 -104 -83 -64 -44 -36 -26 -21 -21 -21 -20 -21 -15 -5 -3 -1 -1 -0 -3 -1
-188 -175 -149 -124 -116 -98 -79 -68 -66 -48 -36 -21 -18 -15 -13 -2 -3 -0 -1 -3 -1 -2
-190 -174 -174 -151 -137 -116 -97 -83 -63 -47 -31 -21 -28 -17 -11 -13 -6 -6 -0 -11 -24 -15
-215 -201 -166 -160 -146 -122 -114 -99 -76 -36 -26 -19 -27 -17 -12 -35 -23 -10 -15 -26 -50 -49
-235 -214 -195 -160 -159 -139 -139 -105 -73 -63 -37 -28 -32 -20 -13 -10 -11 -8 -7 -13 -30 -37
-245 -232 -207 -193 -169 -159 -141 -87 -60 -62 -57 -61 -47 -36 -21 -17 -13 -2 -3 -5 -15 -28
-237 -226 -221 -212 -204 -183 -69 -38 -79 -105 -110 -132 -41 -29 -15 -10 -9 -4 -9 -9 -6 -22
-258 -236 -214 -191 -202 -178 -58 -95 -0 -0 -208 -220 -80 -56 -68 -22 -12 -4 -0 -4 -0 -9
-234 -207 -169 -120 -145 -97 -123 -139 -61 -55 -38 -31 -4 -21 -49 -80 -63 -10 -4 -3 -0 -0
-222 -190 -151 -116 -109 -39 -90 -120 -294 -242 -141 -0 -165 -55 -60 -68 -66 -43 -7 -9 -6 -4
-180 -166 -139 -114 -114 -54 -117 -213 -221 -386 -0 -438 -191 -122 -101 -98 -63 -47 -14 -12 -14 -10
-108 -136 -114 -96 -91 -74 -172 -185 -486 -0 -473 -277 -236 -258 -253 -183 -71 -62 -5 -9 -12 -31
-147 -68 -81 -92 -94 -91 -96 -164 -412 -0 -526 -309 -232 -143 -271 -306 -46 -20 -10 -2 -5 -26
Wind_Speed
18 16 15 13 13 13 15 13 11 11 13 15 13 11 1 22 24 17 21 12 10 10
15 15 14 13 10 12 12 13 10 10 11 12 13 11 7 12 4 20 21 22 16 13
13 13 13 10 10 8 6 6 7 8 9 10 11 12 9 8 2 8 18 19 15 20
11 11 11 11 8 7 5 5 7 6 5 5 9 9 10 13 10 4 4 13 18 17
9 8 9 8 7 3 4 5 4 3 4 5 2 6 8 11 7 10 4 4 6 18
9 9 10 9 5 2 4 1 3 3 2 5 10 12 5 4 8 4 14 4 9 22
1 4 7 8 4 5 4 6 8 8 11 12 19 9 7 12 16 23 16 11 11 11
2 2 2 3 4 6 10 13 9 15 28 13 28 24 11 7 12 16 18 14 16 20
8 7 5 6 5 8 13 9 19 0 8 32 36 36 15 10 12 9 13 12 13 18
12 12 10 9 7 10 9 14 12 18 30 39 39 38 8 5 24 23 10 14 12 13
18 16 14 12 9 11 11 5 8 12 11 18 34 20 7 10 7 11 10 13 11 10
24 20 18 16 12 12 9 6 3 6 10 13 7 4 6 16 10 6 23 16 14 12
29 25 21 18 15 13 10 6 3 3 3 5 7 4 3 7 5 3 5 12 14 12
32 29 24 20 17 14 10 6 2 1 2 1 4 4 4 5 3 3 4 4 8 9
Wind_Direction
176 173 174 168 167 168 175 171 158 158 172 179 174 170 351 279 275 293 285 315 336 344
172 175 174 170 162 166 168 173 160 160 164 172 176 171 160 174 297 284 283 284 300 315
167 175 178 172 173 166 154 153 157 160 164 168 173 175 166 168 163 310 292 292 299 288
162 171 175 180 177 175 171 172 174 169 166 169 176 173 172 181 174 175 303 296 289 291
168 171 178 184 188 186 191 183 186 193 317 324 204 182 185 180 171 176 183 181 296 286
185 188 193 194 192 224 199 230 312 294 250 298 308 305 288 230 190 220 189 246 283 279
143 195 201 204 226 241 265 300 318 318 311 312 296 284 276 292 289 283 290 287 280 284
36 329 272 283 258 237 316 311 323 336 306 317 280 212 207 246 284 287 287 287 284 278
12 2 350 340 307 315 309 345 327 153 205 249 266 255 213 281 281 274 282 278 282 279
11 2 356 353 340 330 325 329 358 10 332 287 264 242 279 229 218 273 269 276 277 276
6 1 359 359 352 344 345 1 0 3 3 335 254 214 220 205 208 211 248 272 268 263
353 356 356 355 354 356 7 16 11 3 26 40 164 177 207 199 205 272 276 276 274 268
340 346 352 356 358 357 0 12 10 55 91 39 36 98 153 191 189 219 246 283 280 266
334 336 342 348 355 360 359 3 11 59 128 98 26 28 84 126 142 161 182 259 273 260